Voltar ao catálogo

NAVSTAR 59

USA 192

AtivoNavegaçãoHEO
NORAD 29601·PAYLOAD·🇺🇸 United States

Lançado Nov 17, 2006 de Cape Canaveral Space Force Station

Loading…

Próximas Passagens (próximas 24 horas)

TLE

AtualizadoSource: CelesTrak SupGP

Época: Sep 17, 2026, 16:38 UTC

1 29601C 06052A   26260.69312500  .00000000  00000+0  00000+0 0  2602
2 29601  54.9234 210.3421 0085587  91.0993 296.2020  2.00563265    15

Acompanhe NAVSTAR 59 em tempo real com AllMySat

Download on the App Store